{"data":{"norad_id":59155,"epoch":"2026-05-25T03:12:42.721920Z","epoch_age_seconds":70275,"freshness":"FRESH","line1":"1 59155U 24044D   26145.13382780  .00001033  00000+0  47033-4 0  9996","line2":"2 59155  43.0034  39.0232 0000725 290.4716  69.6058 15.27590471125219","mean_motion":15.27590471,"eccentricity":7.25e-5,"inclination_deg":43.0034,"raan_deg":39.0232,"arg_perigee_deg":290.4716,"mean_anomaly_deg":69.6058,"bstar":4.7033e-5,"rev_number":12521,"period_min":94.266102554131,"perigee_km":482.52030855901,"apogee_km":483.51517599664,"semimajor_km":6861.1547422778,"source":"CELESTRAK","updated_at":"2026-05-25T13:38:18.832947Z"}}